Weather History for KGSH - February, 2012

Change the Weather History Date:

Monday, February 13, 2012

  Actual Average Record
Temperature  
Mean Temperature 26 °F -  
Max Temperature 34 °F 33 °F 60 °F (1990)
Min Temperature 18 °F 17 °F -8 °F (1979)
Degree Days  
Heating Degree Days 39    
Moisture  
Dew Point 13 °F    
Average Humidity 57    
Maximum Humidity 88    
Minimum Humidity 37    
Precipitation  
Precipitation 0.00 in - - ()
Sea Level Pressure  
Sea Level Pressure 30.11 in    
Wind  
Wind Speed 9 mph (SW)    
Max Wind Speed 18 mph    
Max Gust Speed -    
Visibility 9 miles    
Events Snow    
Averages and records for this station are not official NWS values.
T = Trace of Precipitation, MM = Missing Value Source: NWS Daily Summary

Daily Weather History Graph

Daily Weather History Graph

Search for Another Location

Airport or City:

Trip Planner

Search our weather history database for the weather conditions in past years. The results will help you decide how hot, cold, wet, or windy it might be!

Date:

Astronomy

Feb. 13, 2012 Rise Set
Actual Time 7:41 AM EST 6:13 PM EST
Civil Twilight 7:13 AM EST 6:42 PM EST
Nautical Twilight 6:40 AM EST 7:14 PM EST
Astronomical Twilight 6:08 AM EST 7:47 PM EST
Moon 12:15 AM EST (2/13) 10:33 AM EST (2/13)
Length of Visible Light 11h 29m
Length of Day
10h 32m
Waning Gibbous, 62% of the Moon is Illuminated
Feb 13
Waning Gibbous
Feb 14
Last Quarter
Feb 21
New
Feb 29
First Quarter
Mar 8
Full

Hourly Weather History & Observations

Time (EST) Temp. Windchill Dew Point Humidity Pressure Visibility Wind Dir Wind Speed Gust Speed Precip Events Conditions
12:53 AM 24.1 °F 13.7 °F 12.0 °F 60% 30.22 in 10.0 mi West 10.4 mph - N/A   Clear
1:53 AM 23.0 °F 13.1 °F 10.9 °F 60% 30.22 in 10.0 mi WSW 9.2 mph - N/A   Clear
2:53 AM 21.9 °F 11.0 °F 10.0 °F 60% 30.22 in 10.0 mi WSW 10.4 mph - N/A   Clear
3:53 AM 21.0 °F 12.4 °F 10.0 °F 63% 30.19 in 10.0 mi WSW 6.9 mph - N/A   Clear
4:53 AM 21.0 °F 10.6 °F 10.0 °F 63% 30.21 in 10.0 mi SW 9.2 mph - N/A   Clear
5:53 AM 19.9 °F 11.1 °F 9.0 °F 62% 30.20 in 10.0 mi WSW 6.9 mph - N/A   Clear
6:53 AM 19.9 °F 11.1 °F 8.1 °F 60% 30.19 in 10.0 mi SW 6.9 mph - N/A   Clear
7:53 AM 18.0 °F 9.8 °F 8.1 °F 65% 30.20 in 10.0 mi SW 5.8 mph - N/A   Clear
8:53 AM 21.0 °F 12.4 °F 10.0 °F 63% 30.22 in 10.0 mi SW 6.9 mph - N/A   Clear
9:53 AM 26.1 °F 17.6 °F 10.9 °F 53% 30.21 in 10.0 mi WSW 8.1 mph - N/A   Scattered Clouds
10:53 AM 30.0 °F 22.4 °F 8.1 °F 40% 30.19 in 10.0 mi WSW 8.1 mph - N/A   Overcast
11:53 AM 30.9 °F 22.8 °F 10.0 °F 42% 30.19 in 10.0 mi WSW 9.2 mph - N/A   Overcast
12:53 PM 32.0 °F 22.5 °F 9.0 °F 38% 30.15 in 10.0 mi SW 12.7 mph - N/A   Overcast
1:53 PM 32.0 °F 22.5 °F 10.9 °F 42% 30.12 in 10.0 mi SW 12.7 mph - N/A   Overcast
2:53 PM 33.1 °F 24.9 °F 10.0 °F 38% 30.09 in 10.0 mi SSW 10.4 mph - N/A   Overcast
3:53 PM 34.0 °F 26.6 °F 10.0 °F 37% 30.07 in 10.0 mi SSW 9.2 mph - N/A   Overcast
4:53 PM 34.0 °F 26.0 °F 12.0 °F 40% 30.04 in 10.0 mi SSW 10.4 mph - N/A   Overcast
5:53 PM 33.1 °F 26.9 °F 15.1 °F 48% 30.02 in 10.0 mi South 6.9 mph - N/A   Overcast
6:53 PM 32.0 °F 24.2 °F 17.1 °F 54% 30.02 in 10.0 mi South 9.2 mph - N/A   Overcast
7:53 PM 32.0 °F 24.8 °F 17.1 °F 54% 30.01 in 10.0 mi South 8.1 mph - N/A   Overcast
8:53 PM 32.0 °F 23.0 °F 17.1 °F 54% 30.00 in 10.0 mi SSE 11.5 mph - N/A   Overcast
9:53 PM 32.0 °F 20.5 °F 17.1 °F 54% 29.99 in 10.0 mi SSW 18.4 mph - N/A   Overcast
10:53 PM 28.9 °F 20.4 °F 23.0 °F 78% 29.98 in 6.0 mi South 9.2 mph - 0.00 in Snow Light Snow
11:12 PM 28.4 °F 19.1 °F 24.8 °F 86% 29.95 in 2.0 mi South 10.4 mph - 0.00 in Snow Light Snow
11:23 PM 28.4 °F 20.4 °F 24.8 °F 86% 29.94 in 1.8 mi South 8.1 mph - 0.00 in Snow Light Snow
11:53 PM 28.0 °F 20.8 °F 25.0 °F 88% 29.96 in 1.8 mi South 6.9 mph - 0.00 in Snow Light Snow